Weather History for Mexicali, Mexico

Change the Weather History Date:

Sunday, July 14, 2013

  Actual Average Record
Temperature  
Mean Temperature 96 °F -  
Max Temperature 107 °F 104 °F 116 °F (2003)
Min Temperature 84 °F 77 °F 71 °F (2011)
Cooling Degree Days 30    
Growing Degree Days 46 (Base 50)    
Moisture  
Dew Point 63 °F    
Average Humidity 35    
Maximum Humidity 55    
Minimum Humidity 18    
Precipitation  
Precipitation 0.00 in - - ()
Sea Level Pressure  
Sea Level Pressure 29.74 in    
Wind  
Wind Speed 4 mph ()    
Max Wind Speed 10 mph    
Max Gust Speed -    
Visibility 10.0 miles    
Events      
Averages and records for this station are not official NWS values.
T = Trace of Precipitation, MM = Missing Value Source: Averaged Metar Reports

Daily Weather History Graph

Daily Weather History Graph

Search for Another Location

Airport:

Trip Planner

Search our weather history database for the weather conditions in past years. The results will help you decide how hot, cold, wet, or windy it might be!

Date:

Astronomy

Jul. 14, 2013 Rise Set
Actual Time 5:43 AM PDT 7:49 PM PDT
Civil Twilight 5:15 AM PDT 8:17 PM PDT
Nautical Twilight 4:41 AM PDT 8:51 PM PDT
Astronomical Twilight 4:05 AM PDT 9:28 PM PDT
Moon 11:41 AM PDT (7/14) 11:29 PM PDT (7/14)
Length of Visible Light 15h 01m
Length of Day
14h 06m
Waxing Crescent, 36% of the Moon is Illuminated
Jul 14
Waxing Crescent
Jul 15
First Quarter
Jul 22
Full
Jul 29
Last Quarter
Aug 6
New

Hourly Weather History & Observations

Time (PDT) Temp. Heat Index Dew Point Humidity Pressure Visibility Wind Dir Wind Speed Gust Speed Precip Events Conditions
12:42 AM 87.8 °F 90.4 °F 66.2 °F 49% 29.75 in 10.0 mi SE 6.9 mph - N/A   Clear
6:47 AM 84.2 °F 86.6 °F 66.2 °F 55% 29.80 in 10.0 mi ESE 5.8 mph - N/A   Mostly Cloudy
7:42 AM 87.8 °F 91.4 °F 68.0 °F 52% 29.85 in 10.0 mi SSE 9.2 mph - N/A   Mostly Cloudy
8:43 AM 89.6 °F 96.2 °F 71.6 °F 55% 29.82 in 10.0 mi SE 8.1 mph - N/A   Mostly Cloudy
9:46 AM 93.2 °F 98.8 °F 69.8 °F 46% 29.81 in 10.0 mi Calm Calm - N/A   Scattered Clouds
10:47 AM 98.6 °F 102.8 °F 66.2 °F 35% 29.81 in 10.0 mi Calm Calm - N/A   Clear
11:40 AM 100.4 °F 102.4 °F 62.6 °F 29% 29.79 in 10.0 mi Calm Calm - N/A   Clear
12:50 PM 104.0 °F 105.3 °F 60.8 °F 24% 29.76 in 10.0 mi Calm Calm - N/A   Clear
1:46 PM 105.8 °F 106.8 °F 59.0 °F 22% 29.76 in 10.0 mi SSE 6.9 mph - N/A   Clear
2:49 PM 105.8 °F 105.5 °F 57.2 °F 20% 29.72 in 10.0 mi Calm Calm - N/A   Clear
3:48 PM 107.6 °F 106.8 °F 55.4 °F 18% 29.68 in 10.0 mi Calm Calm - N/A   Clear
4:42 PM 107.6 °F 106.8 °F 55.4 °F 18% 29.69 in 10.0 mi SE 8.1 mph - N/A   Clear
5:54 PM 105.8 °F 106.8 °F 59.0 °F 22% 29.66 in 10.0 mi SSE 9.2 mph - N/A   Clear
6:48 PM 102.2 °F 103.6 °F 60.8 °F 26% 29.67 in 10.0 mi SSE 10.4 mph - N/A   Clear
7:49 PM 98.6 °F 99.4 °F 60.8 °F 29% 29.68 in 10.0 mi Calm Calm - N/A   Clear
9:07 PM 95.0 °F 96.0 °F 62.6 °F 34% 29.69 in 10.0 mi SSE 8.1 mph - N/A   Clear
9:54 PM 93.2 °F 94.9 °F 64.4 °F 38% 29.70 in 10.0 mi SE 6.9 mph - N/A   Clear
10:47 PM 89.6 °F 92.2 °F 66.2 °F 46% 29.70 in 10.0 mi Calm Calm - N/A   Clear
11:50 PM 87.8 °F 91.4 °F 68.0 °F 52% 29.70 in 10.0 mi ESE 5.8 mph - N/A   Clear